Location: Namasale
(1.5000°N, 32.6167°E)
Time: 18:01:31
(UTC+00:00)

Vanguard 1 Rocket - Pass Details

Date: 24 April 2021
Orbit: 652 x 4224 km, 34.3° (Epoch: 09 May)

Event Time Altitude Azimuth Distance (km) Brightness Sun altitude
Rises 22:37:21 0° 241° (WSW) 6,181 - -70.8°
Reaches altitude 10° 22:43:19 10° 223° (SW) 5,809 - -69.8°
Maximum altitude 22:55:30 19° 184° (S) 6,044 - -67.7°
Exits shadow 23:04:22 15° 160° (SSE) 6,749 11.6 -66.0°
Drops below altitude 10° 23:11:02 10° 145° (SE) 7,403 11.9 -64.6°
Sets 23:20:51 0° 129° (SE) 8,423 12.4 -62.6°
